Weather History for CWZG - July, 2013

Change the Weather History Date:

Sunday, July 21, 2013

  Actual Average Record
Temperature  
Mean Temperature 66 °F -  
Max Temperature 79 °F - - ()
Min Temperature 53 °F - - ()
Cooling Degree Days 1    
Growing Degree Days 16 (Base 50)    
Moisture  
Dew Point 47 °F    
Average Humidity 54    
Maximum Humidity 79    
Minimum Humidity 22    
Precipitation  
Precipitation 0.00 in - - ()
Sea Level Pressure  
Sea Level Pressure 29.80 in    
Wind  
Wind Speed 5 mph ()    
Max Wind Speed 12 mph    
Max Gust Speed 23 mph    
T = Trace of Precipitation, MM = Missing Value Source: Averaged Metar Reports

Daily Weather History Graph

Daily Weather History Graph

Search for Another Location

Airport or City:

Trip Planner

Search our weather history database for the weather conditions in past years. The results will help you decide how hot, cold, wet, or windy it might be!

Date:

Astronomy

Jul. 21, 2013 Rise Set
Actual Time 5:52 AM MDT 9:44 PM MDT
Civil Twilight 5:09 AM MDT 10:26 PM MDT
Nautical Twilight 4:09 AM MDT 11:25 PM MDT
Astronomical Twilight 2:23 AM MDT 1:06 AM MDT
Moon 8:39 PM MDT (7/21) 4:46 AM MDT (7/21)
Length of Visible Light 17h 17m
Length of Day
15h 52m
Waxing Gibbous, 98% of the Moon is Illuminated
Jul 21
Waxing Gibbous
Jul 22
Full
Jul 29
Last Quarter
Aug 6
New
Aug 14
First Quarter

Hourly Weather History & Observations

Time (MDT) Temp. Dew Point Humidity Pressure Visibility Wind Dir Wind Speed Gust Speed Precip Events Conditions
12:00 AM 65.7 °F 41.2 °F 41% 29.74 in - SW 2.3 mph - N/A   Unknown
1:00 AM 64.8 °F 42.3 °F 44% 29.76 in - SW 4.6 mph - N/A   Unknown
2:00 AM 62.1 °F 42.4 °F 49% 29.77 in - SSW 3.5 mph - N/A   Unknown
3:00 AM 60.8 °F 48.7 °F 64% 29.79 in - NNE 6.9 mph - N/A   Unknown
4:00 AM 58.1 °F 48.7 °F 71% 29.82 in - NNE 11.5 mph 23.0 mph N/A   Unknown
5:00 AM 56.5 °F 47.5 °F 72% 29.83 in - NNE 8.1 mph - N/A   Unknown
6:00 AM 55.6 °F 46.6 °F 72% 29.84 in - ENE 3.5 mph - N/A   Unknown
7:00 AM 53.4 °F 46.9 °F 79% 29.86 in - East 2.3 mph - N/A   Unknown
8:00 AM 58.5 °F 48.2 °F 69% 29.86 in - NE 2.3 mph - N/A   Unknown
9:00 AM 60.3 °F 47.3 °F 62% 29.85 in - NE 2.3 mph - N/A   Unknown
10:00 AM 64.4 °F 48.0 °F 55% 29.83 in - NE 4.6 mph - N/A   Unknown
11:00 AM 68.9 °F 47.1 °F 46% 29.81 in - East 3.5 mph - N/A   Unknown
12:00 PM 70.0 °F 47.8 °F 45% 29.79 in - East 3.5 mph - N/A   Unknown
1:00 PM 77.2 °F 46.9 °F 34% 29.76 in - SSW 6.9 mph - N/A   Unknown
2:00 PM 78.1 °F 38.8 °F 24% 29.75 in - West 5.8 mph - N/A   Unknown
3:00 PM 79.3 °F 37.2 °F 22% 29.75 in - SW 9.2 mph 18.4 mph N/A   Unknown
4:00 PM 78.3 °F 38.7 °F 24% 29.75 in - SW 5.8 mph - N/A   Unknown
5:00 PM 77.7 °F 39.7 °F 26% 29.75 in - SW 4.6 mph - N/A   Unknown
6:00 PM 71.4 °F 51.3 °F 49% 29.79 in - NE 6.9 mph - N/A   Unknown
7:00 PM 69.3 °F 53.4 °F 57% 29.79 in - NE 8.1 mph - N/A   Unknown
8:00 PM 65.8 °F 53.8 °F 65% 29.82 in - NE 10.4 mph 19.6 mph N/A   Unknown
9:00 PM 63.9 °F 54.1 °F 71% 29.83 in - East 8.1 mph - N/A   Unknown
10:00 PM 61.7 °F 54.5 °F 77% 29.83 in - NE 5.8 mph - N/A   Unknown
11:00 PM 62.1 °F 54.1 °F 75% 29.83 in - NE 9.2 mph - N/A   Unknown